Time,TemperatureF,DewpointF,PressureIn,WindDirection,WindDirectionDegrees,WindSpeedMPH,WindSpeedGustMPH,Humidity,HourlyPrecipIn,Conditions,Clouds,dailyrainin,SolarRadiationWatts/m^2,SoftwareType,DateUTC
2013-12-03 00:02:00,43.0,43.0,-100.00,NNE,15,0.0,0.0,100,0.00,,,0.00,0.000000,,2013-12-03 06:02:00,
2013-12-03 00:42:00,43.0,43.0,-100.00,NNE,15,0.0,0.0,100,0.00,,,0.00,0.000000,,2013-12-03 06:42:00,
2013-12-03 00:53:00,43.0,43.0,-100.00,NNE,15,0.0,0.0,100,0.00,,,0.00,0.000000,,2013-12-03 06:53:00,
2013-12-03 01:02:00,42.0,42.0,-100.00,North,351,0.0,0.0,100,0.00,,,0.00,0.000000,,2013-12-03 07:02:00,
2013-12-03 01:42:00,42.0,42.0,-100.00,North,351,0.0,0.0,100,0.00,,,0.00,0.000000,,2013-12-03 07:42:00,
2013-12-03 01:52:00,42.0,42.0,-100.00,North,351,0.0,0.0,100,0.00,,,0.00,0.000000,,2013-12-03 07:52:00,
2013-12-03 02:42:00,42.0,42.0,-100.00,ESE,104,0.0,0.0,100,0.00,,,0.00,0.000000,,2013-12-03 08:42:00,
2013-12-03 02:53:00,42.0,42.0,-100.00,ESE,104,0.0,0.0,100,0.00,,,0.00,0.000000,,2013-12-03 08:53:00,
2013-12-03 03:01:00,42.0,42.0,-100.00,ESE,104,0.0,0.0,100,0.00,,,0.00,0.000000,,2013-12-03 09:01:00,
2013-12-03 03:02:00,42.0,42.0,-100.00,West,267,0.0,0.0,100,0.00,,,0.00,0.000000,,2013-12-03 09:02:00,
2013-12-03 03:22:00,42.0,42.0,-100.00,West,267,0.0,0.0,100,0.00,,,0.00,0.000000,,2013-12-03 09:22:00,
2013-12-03 03:33:00,42.0,42.0,-100.00,West,267,0.0,0.0,100,0.00,,,0.00,0.000000,,2013-12-03 09:33:00,
2013-12-03 03:43:00,42.0,42.0,-100.00,West,267,0.0,0.0,100,0.00,,,0.00,0.000000,,2013-12-03 09:43:00,
2013-12-03 03:54:00,42.0,42.0,-100.00,West,267,0.0,0.0,100,0.00,,,0.00,0.000000,,2013-12-03 09:54:00,
2013-12-03 04:02:00,41.0,41.0,-100.00,ESE,106,0.0,0.0,100,0.00,,,0.00,0.000000,,2013-12-03 10:02:00,
2013-12-03 04:42:00,41.0,41.0,-100.00,ESE,106,0.0,0.0,100,0.00,,,0.00,0.000000,,2013-12-03 10:42:00,
2013-12-03 04:53:00,41.0,41.0,-100.00,ESE,106,0.0,0.0,100,0.00,,,0.00,0.000000,,2013-12-03 10:53:00,
2013-12-03 05:02:00,41.0,41.0,-100.00,East,86,1.0,2.0,100,0.00,,,0.00,0.000000,,2013-12-03 11:02:00,
2013-12-03 05:42:00,41.0,41.0,-100.00,East,86,1.0,2.0,100,0.00,,,0.00,0.000000,,2013-12-03 11:42:00,
2013-12-03 05:52:00,41.0,41.0,-100.00,East,86,1.0,2.0,100,0.00,,,0.00,0.000000,,2013-12-03 11:52:00,
2013-12-03 06:02:00,45.0,45.0,-100.00,East,97,3.0,4.0,100,0.00,,,0.00,0.000000,,2013-12-03 12:02:00,
2013-12-03 06:42:00,45.0,45.0,-100.00,East,97,3.0,4.0,100,0.00,,,0.00,0.000000,,2013-12-03 12:42:00,
2013-12-03 06:52:00,45.0,45.0,-100.00,East,97,3.0,4.0,100,0.00,,,0.00,0.000000,,2013-12-03 12:52:00,
2013-12-03 07:02:00,48.0,48.0,-100.00,ENE,71,4.0,7.0,100,0.00,,,0.00,0.000000,,2013-12-03 13:02:00,
2013-12-03 07:42:00,48.0,48.0,-100.00,ENE,71,4.0,7.0,100,0.00,,,0.00,0.000000,,2013-12-03 13:42:00,
2013-12-03 07:52:00,48.0,48.0,-100.00,ENE,71,4.0,7.0,100,0.00,,,0.00,0.000000,,2013-12-03 13:52:00,
2013-12-03 08:02:00,49.0,49.0,-100.00,ENE,78,3.0,7.0,100,0.00,,,0.00,11.000000,,2013-12-03 14:02:00,
2013-12-03 08:42:00,49.0,49.0,-100.00,ENE,78,3.0,7.0,100,0.00,,,0.00,11.000000,,2013-12-03 14:42:00,
2013-12-03 08:52:00,49.0,49.0,-100.00,ENE,78,3.0,7.0,100,0.00,,,0.00,11.000000,,2013-12-03 14:52:00,
2013-12-03 09:02:00,51.0,51.0,-100.00,ENE,76,4.0,7.0,100,0.00,,,0.00,55.000000,,2013-12-03 15:02:00,
2013-12-03 09:44:00,51.0,51.0,-100.00,ENE,76,4.0,7.0,100,0.00,,,0.00,55.000000,,2013-12-03 15:44:00,
2013-12-03 09:54:00,51.0,51.0,-100.00,ENE,76,4.0,7.0,100,0.00,,,0.00,55.000000,,2013-12-03 15:54:00,
2013-12-03 10:02:00,53.0,53.0,-100.00,East,99,5.0,8.0,100,0.00,,,0.00,101.000000,,2013-12-03 16:02:00,
2013-12-03 10:43:00,53.0,53.0,-100.00,East,99,5.0,8.0,100,0.00,,,0.00,101.000000,,2013-12-03 16:43:00,
2013-12-03 10:52:00,53.0,53.0,-100.00,East,99,5.0,8.0,100,0.00,,,0.00,101.000000,,2013-12-03 16:52:00,
2013-12-03 11:02:00,53.0,53.0,-100.00,East,98,4.0,9.0,100,0.00,,,0.00,129.000000,,2013-12-03 17:02:00,
2013-12-03 11:22:00,53.0,53.0,-100.00,East,98,4.0,9.0,100,0.00,,,0.00,129.000000,,2013-12-03 17:22:00,
2013-12-03 11:33:00,53.0,53.0,-100.00,East,98,4.0,9.0,100,0.00,,,0.00,129.000000,,2013-12-03 17:33:00,
2013-12-03 11:42:00,53.0,53.0,-100.00,East,98,4.0,9.0,100,0.00,,,0.00,129.000000,,2013-12-03 17:42:00,
2013-12-03 11:53:00,53.0,53.0,-100.00,East,98,4.0,9.0,100,0.00,,,0.00,129.000000,,2013-12-03 17:53:00,
2013-12-03 12:02:00,54.0,54.0,-100.00,East,86,5.0,10.0,100,0.00,,,0.00,151.000000,,2013-12-03 18:02:00,
2013-12-03 12:42:00,54.0,54.0,-100.00,East,86,5.0,10.0,100,0.00,,,0.00,151.000000,,2013-12-03 18:42:00,
2013-12-03 12:53:00,54.0,54.0,-100.00,East,86,5.0,10.0,100,0.00,,,0.00,151.000000,,2013-12-03 18:53:00,
2013-12-03 13:42:00,54.0,54.0,-100.00,ESE,108,3.0,8.0,100,0.00,,,0.00,106.000000,,2013-12-03 19:42:00,
2013-12-03 13:52:00,54.0,54.0,-100.00,ESE,108,3.0,8.0,100,0.00,,,0.00,106.000000,,2013-12-03 19:52:00,
2013-12-03 14:01:00,54.0,54.0,-100.00,ESE,108,3.0,8.0,100,0.00,,,0.00,106.000000,,2013-12-03 20:01:00,
2013-12-03 14:02:00,55.0,55.0,-100.00,SE,134,3.0,7.0,100,0.00,,,0.00,71.000000,,2013-12-03 20:02:00,
2013-12-03 14:42:00,55.0,55.0,-100.00,SE,134,3.0,7.0,100,0.00,,,0.00,71.000000,,2013-12-03 20:42:00,
2013-12-03 14:53:00,55.0,55.0,-100.00,SE,134,3.0,7.0,100,0.00,,,0.00,71.000000,,2013-12-03 20:53:00,
2013-12-03 15:02:00,56.0,56.0,-100.00,SSE,156,4.0,7.0,100,0.00,,,-99.99,118.000000,,2013-12-03 21:02:00,
2013-12-03 15:44:00,56.0,56.0,-100.00,SSE,156,4.0,7.0,100,0.00,,,-99.99,118.000000,,2013-12-03 21:44:00,
2013-12-03 15:54:00,56.0,56.0,-100.00,SSE,156,4.0,7.0,100,0.00,,,-99.99,118.000000,,2013-12-03 21:54:00,
2013-12-03 16:02:00,58.0,56.0,-100.00,East,93,4.0,7.0,94,0.00,,,0.00,191.000000,,2013-12-03 22:02:00,
2013-12-03 16:43:00,58.0,56.0,-100.00,East,93,4.0,7.0,94,0.00,,,0.00,191.000000,,2013-12-03 22:43:00,
2013-12-03 16:53:00,58.0,56.0,-100.00,East,93,4.0,7.0,94,0.00,,,0.00,191.000000,,2013-12-03 22:53:00,
2013-12-03 17:02:00,55.0,55.0,-100.00,NE,38,0.0,4.0,100,0.00,,,0.00,45.000000,,2013-12-03 23:02:00,
2013-12-03 17:42:00,55.0,55.0,-100.00,NE,38,0.0,4.0,100,0.00,,,0.00,45.000000,,2013-12-03 23:42:00,
2013-12-03 17:52:00,55.0,55.0,-100.00,NE,38,0.0,4.0,100,0.00,,,0.00,45.000000,,2013-12-03 23:52:00,
2013-12-03 18:02:00,51.0,51.0,-100.00,ESE,108,1.0,4.0,100,0.00,,,0.00,1.000000,,2013-12-04 00:02:00,
2013-12-03 18:22:00,51.0,51.0,-100.00,ESE,108,1.0,4.0,100,0.00,,,0.00,1.000000,,2013-12-04 00:22:00,
2013-12-03 18:32:00,51.0,51.0,-100.00,ESE,108,1.0,4.0,100,0.00,,,0.00,1.000000,,2013-12-04 00:32:00,
2013-12-03 18:42:00,51.0,51.0,-100.00,ESE,108,1.0,4.0,100,0.00,,,0.00,1.000000,,2013-12-04 00:42:00,
2013-12-03 18:52:00,51.0,51.0,-100.00,ESE,108,1.0,4.0,100,0.00,,,0.00,1.000000,,2013-12-04 00:52:00,
2013-12-03 19:02:00,50.0,50.0,-100.00,East,84,2.0,3.0,100,0.00,,,0.00,0.000000,,2013-12-04 01:02:00,
2013-12-03 19:42:00,50.0,50.0,-100.00,East,84,2.0,3.0,100,0.00,,,0.00,0.000000,,2013-12-04 01:42:00,
2013-12-03 19:52:00,50.0,50.0,-100.00,East,84,2.0,3.0,100,0.00,,,0.00,0.000000,,2013-12-04 01:52:00,
2013-12-03 20:02:00,49.0,49.0,-100.00,East,95,3.0,4.0,100,0.00,,,0.00,0.000000,,2013-12-04 02:02:00,
2013-12-03 20:22:00,49.0,49.0,-100.00,East,95,3.0,4.0,100,0.00,,,0.00,0.000000,,2013-12-04 02:22:00,
2013-12-03 20:32:00,49.0,49.0,-100.00,East,95,3.0,4.0,100,0.00,,,0.00,0.000000,,2013-12-04 02:32:00,
2013-12-03 20:42:00,49.0,49.0,-100.00,East,95,3.0,4.0,100,0.00,,,0.00,0.000000,,2013-12-04 02:42:00,
2013-12-03 20:52:00,49.0,49.0,-100.00,East,95,3.0,4.0,100,0.00,,,0.00,0.000000,,2013-12-04 02:52:00,
2013-12-03 21:02:00,49.0,49.0,-100.00,East,90,4.0,5.0,100,0.00,,,0.00,0.000000,,2013-12-04 03:02:00,
2013-12-03 21:44:00,49.0,49.0,-100.00,East,90,4.0,5.0,100,0.00,,,0.00,0.000000,,2013-12-04 03:44:00,
2013-12-03 21:54:00,49.0,49.0,-100.00,East,90,4.0,5.0,100,0.00,,,0.00,0.000000,,2013-12-04 03:54:00,
2013-12-03 22:02:00,51.0,51.0,-100.00,East,82,4.0,7.0,100,0.00,,,0.00,0.000000,,2013-12-04 04:02:00,
2013-12-03 22:43:00,51.0,51.0,-100.00,East,82,4.0,7.0,100,0.00,,,0.00,0.000000,,2013-12-04 04:43:00,
2013-12-03 22:52:00,51.0,51.0,-100.00,East,82,4.0,7.0,100,0.00,,,0.00,0.000000,,2013-12-04 04:52:00,
2013-12-03 23:02:00,51.0,51.0,-100.00,East,79,4.0,8.0,100,0.00,,,0.00,0.000000,,2013-12-04 05:02:00,
2013-12-03 23:42:00,51.0,51.0,-100.00,East,79,4.0,8.0,100,0.00,,,0.00,0.000000,,2013-12-04 05:42:00,
2013-12-03 23:53:00,51.0,51.0,-100.00,East,79,4.0,8.0,100,0.00,,,0.00,0.000000,,2013-12-04 05:53:00,